Location: B?ogocice
(50.2413°N, 20.2361°E)
Time: 23:47:13
(UTC+00:00)

ADEOS II - Pass Details

Date: 15 June 2024
Orbit: 796 x 797 km, 98.7° (Epoch: 18 July)

Event Time Altitude Azimuth Distance (km) Brightness Sun altitude
Rises 00:37:36 0° 19° (NNE) 3,314 7.3 -11.9°
Reaches altitude 10° 00:40:02 10° 25° (NNE) 2,380 6.1 -11.8°
Maximum altitude 00:45:06 47° 99° (E) 1,045 2.9 -11.4°
Drops below altitude 10° 00:50:08 10° 173° (S) 2,363 4.1 -11.0°
Enters shadow 00:50:33 - 175° (S) 2,518 4.2 -10.9°
